QPF
0.24 0.31 0.34 0.34 0.30 0.30 0.31 0.30 0.28 0.27 0.25 0.21 0.16 0.11 0.07 0.05 0.05 0.03 0.02 0.03 0.02 0.02 0.01 0.01 0.01 0.01 0.01 0.00 0.00 0.00 0.00 0.00 0.00 0.00 0.00 0.00 0.00 0.00
0.16 0.20 0.26 0.28 0.28 0.28 0.28 0.27 0.24 0.21 0.20 0.17 0.14 0.10 0.07 0.04 0.03 0.02 0.02 0.01 0.01 0.01 0.00 0.00 0.00 0.00 0.00 0.00 0.00 0.00 0.00 0.00 0.00 0.00 0.00 0.00 0.00 0.00
0.16 0.18 0.21 0.23 0.25 0.27 0.26 0.25 0.24 0.21 0.19 0.16 0.11 0.08 0.05 0.03 0.02 0.01 0.01 0.01 0.01 0.00 0.00 0.00 0.00 0.00 0.00 0.00 0.00 0.00 0.00 0.00 0.00 0.00 0.00 0.00 0.00 0.00
0.11 0.13 0.16 0.18 0.18 0.19 0.18 0.18 0.18 0.16 0.13 0.12 0.09 0.06 0.04 0.02 0.02 0.01 0.01 0.01 0.01 0.00 0.00 0.00 0.00 0.00 0.00 0.00 0.00 0.00 0.00 0.00 0.00 0.00 0.00 0.00 0.00 0.00
0.08 0.08 0.10 0.11 0.11 0.11 0.10 0.09 0.09 0.08 0.06 0.05 0.05 0.04 0.03 0.02 0.01 0.01 0.01 0.00 0.00 0.00 0.00 0.00 0.00 0.00 0.00 0.00 0.00 0.00 0.00 0.00 0.00 0.00 0.00 0.00 0.00 0.00
0.09 0.08 0.08 0.08 0.07 0.07 0.06 0.05 0.04 0.03 0.03 0.02 0.02 0.02 0.01 0.01 0.01 0.01 0.00 0.00 0.00 0.00 0.00 0.00 0.00 0.00 0.00 0.00 0.00 0.00 0.00 0.00 0.00 0.00 0.00 0.00 0.00 0.00
0.06 0.05 0.05 0.05 0.05 0.04 0.03 0.03 0.02 0.02 0.01 0.01 0.00 0.00 0.00 0.00 0.00 0.00 0.00 0.00 0.00 0.00 0.00 0.00 0.00 0.01 0.01 0.00 0.00 0.00 0.00 0.00 0.00 0.00 0.00 0.00 0.00 0.00
0.04 0.03 0.02 0.02 0.02 0.02 0.01 0.01 0.01 0.01 0.00 0.00 0.00 0.00 0.00 0.00 0.00 0.00 0.00 0.00 0.00 0.00 0.00 0.00 0.00 0.00 0.01 0.00 0.00 0.00 0.00 0.00 0.00 0.00 0.00 0.00 0.00 0.00
0.02 0.01 0.01 0.00 0.00 0.00 0.00 0.00 0.00 0.00 0.00 0.00 0.00 0.00 0.00 0.00 0.00 0.00 0.01 0.01 0.01 0.00 0.00 0.01 0.00 0.00 0.00 0.00 0.00 0.00 0.00 0.00 0.00 0.00 0.00 0.00 0.00 0.00
0.01 0.00 0.00 0.00 0.00 0.00 0.00 0.00 0.00 0.00 0.00 0.00 0.00 0.00 0.00 0.00 0.00 0.01 0.01 0.01 0.01 0.00 0.00 0.01 0.00 0.00 0.00 0.00 0.00 0.00 0.00 0.00 0.00 0.00 0.00 0.00 0.00 0.00
0.00 0.00 0.00 0.00 0.00 0.00 0.00 0.00 0.00 0.00 0.00 0.00 0.00 0.00 0.00 0.00 0.00 0.00 0.01 0.01 0.01 0.01 0.00 0.00 0.00 0.01 0.01 0.00 0.00 0.00 0.00 0.00 0.00 0.00 0.00 0.00 0.00 0.00
0.00 0.00 0.00 0.00 0.00 0.00 0.00 0.00 0.00 0.00 0.00 0.00 0.00 0.00 0.00 0.00 0.00 0.00 0.01 0.01 0.01 0.01 0.00 0.00 0.00 0.01 0.01 0.00 0.00 0.00 0.00 0.00 0.00 0.00 0.00 0.00 0.00 0.00
0.00 0.00 0.00 0.00 0.00 0.00 0.00 0.00 0.00 0.00 0.00 0.00 0.01 0.01 0.01 0.01 0.00 0.00 0.00 0.01 0.01 0.02 0.01 0.01 0.02 0.01 0.01 0.00 0.00 0.00 0.00 0.00 0.00 0.00 0.00 0.00 0.00 0.00
0.00 0.00 0.00 0.00 0.00 0.00 0.00 0.00 0.00 0.00 0.00 0.00 0.00 0.01 0.01 0.01 0.01 0.01 0.00 0.00 0.01 0.01 0.01 0.01 0.02 0.02 0.01 0.01 0.00 0.00 0.00 0.00 0.00 0.00 0.00 0.00 0.00 0.00
0.00 0.00 0.00 0.00 0.00 0.00 0.00 0.00 0.00 0.00 0.00 0.01 0.01 0.01 0.00 0.00 0.00 0.00 0.00 0.00 0.00 0.00 0.00 0.01 0.02 0.02 0.02 0.01 0.01 0.00 0.00 0.00 0.00 0.00 0.00 0.00 0.00 0.00
0.00 0.00 0.00 0.00 0.00 0.00 0.00 0.00 0.00 0.00 0.00 0.01 0.01 0.01 0.00 0.00 0.00 0.01 0.01 0.01 0.01 0.01 0.00 0.00 0.00 0.01 0.01 0.01 0.01 0.00 0.00 0.00 0.00 0.00 0.00 0.00 0.00 0.00
0.00 0.00 0.00 0.00 0.00 0.00 0.00 0.00 0.00 0.00 0.00 0.00 0.00 0.01 0.01 0.01 0.01 0.00 0.00 0.01 0.01 0.01 0.01 0.00 0.00 0.00 0.01 0.01 0.01 0.00 0.00 0.00 0.00 0.00 0.00 0.00 0.00 0.00
0.00 0.00 0.00 0.00 0.00 0.00 0.00 0.01 0.00 0.00 0.00 0.00 0.00 0.00 0.01 0.01 0.01 0.00 0.00 0.01 0.01 0.01 0.01 0.00 0.00 0.01 0.00 0.00 0.00 0.00 0.01 0.00 0.00 0.00 0.00 0.01 0.01 0.01
0.00 0.00 0.00 0.00 0.01 0.00 0.00 0.00 0.00 0.00 0.00 0.00 0.00 0.00 0.00 0.01 0.01 0.00 0.00 0.01 0.01 0.00 0.00 0.00 0.00 0.01 0.01 0.00 0.00 0.00 0.00 0.01 0.00 0.00 0.00 0.01 0.01 0.01
0.00 0.00 0.00 0.00 0.00 0.01 0.00 0.00 0.00 0.00 0.00 0.00 0.00 0.00 0.00 0.01 0.01 0.01 0.01 0.01 0.01 0.00 0.00 0.00 0.00 0.00 0.01 0.01 0.00 0.00 0.00 0.00 0.00 0.01 0.00 0.00 0.00 0.00
0.00 0.00 0.00 0.00 0.00 0.00 0.00 0.00 0.00 0.00 0.00 0.00 0.00 0.00 0.00 0.00 0.01 0.00 0.00 0.00 0.00 0.00 0.00 0.00 0.00 0.00 0.00 0.00 0.00 0.00 0.00 0.00 0.00 0.00 0.00 0.00 0.00 0.00
0.00 0.00 0.00 0.00 0.00 0.00 0.00 0.00 0.00 0.00 0.00 0.00 0.00 0.00 0.00 0.00 0.00 0.00 0.00 0.00 0.00 0.00 0.00 0.00 0.00 0.00 0.00 0.00 0.01 0.00 0.00 0.00 0.00 0.00 0.00 0.00 0.00 0.00
0.00 0.00 0.00 0.00 0.00 0.00 0.00 0.00 0.00 0.00 0.00 0.00 0.00 0.00 0.00 0.00 0.00 0.00 0.00 0.00 0.00 0.00 0.00 0.00 0.00 0.00 0.00 0.00 0.00 0.00 0.00 0.00 0.00 0.00 0.00 0.00 0.00 0.00
MSLP
1014.65 1014.84 1015.26 1015.91 1016.78 1017.83 1019.00 1020.21 1021.41 1022.53 1023.52 1024.36 1025.04 1025.57 1025.97 1026.28 1026.54 1026.77 1027.00 1027.23 1027.47 1027.71 1027.93 1028.13 1028.29 1028.41 1028.48 1028.50 1028.49 1028.44 1028.36 1028.26 1028.14 1028.00 1027.83 1027.64 1027.43 1027.20
1015.13 1015.28 1015.63 1016.19 1016.94 1017.86 1018.91 1020.03 1021.15 1022.22 1023.21 1024.06 1024.78 1025.36 1025.82 1026.18 1026.47 1026.72 1026.95 1027.18 1027.41 1027.64 1027.87 1028.08 1028.28 1028.44 1028.56 1028.63 1028.66 1028.64 1028.57 1028.45 1028.30 1028.12 1027.90 1027.66 1027.41 1027.14
1015.89 1016.02 1016.30 1016.76 1017.38 1018.16 1019.05 1020.02 1021.02 1022.00 1022.92 1023.74 1024.46 1025.05 1025.53 1025.91 1026.22 1026.47 1026.70 1026.92 1027.13 1027.36 1027.59 1027.82 1028.05 1028.25 1028.42 1028.55 1028.62 1028.64 1028.59 1028.48 1028.31 1028.10 1027.86 1027.59 1027.30 1027.01
1016.82 1016.94 1017.17 1017.52 1018.02 1018.64 1019.37 1020.17 1021.02 1021.87 1022.69 1023.45 1024.11 1024.69 1025.16 1025.54 1025.84 1026.09 1026.31 1026.50 1026.70 1026.91 1027.14 1027.38 1027.63 1027.87 1028.08 1028.26 1028.37 1028.43 1028.41 1028.32 1028.16 1027.95 1027.69 1027.41 1027.11 1026.82
1017.83 1017.93 1018.11 1018.38 1018.76 1019.24 1019.80 1020.45 1021.14 1021.85 1022.55 1023.21 1023.81 1024.34 1024.78 1025.14 1025.43 1025.66 1025.85 1026.03 1026.20 1026.38 1026.59 1026.83 1027.08 1027.33 1027.57 1027.78 1027.94 1028.02 1028.04 1027.97 1027.84 1027.65 1027.41 1027.14 1026.86 1026.58
1018.83 1018.91 1019.05 1019.25 1019.53 1019.89 1020.32 1020.81 1021.36 1021.93 1022.51 1023.08 1023.60 1024.08 1024.48 1024.81 1025.07 1025.27 1025.44 1025.57 1025.71 1025.86 1026.04 1026.24 1026.48 1026.72 1026.96 1027.18 1027.36 1027.47 1027.51 1027.48 1027.38 1027.22 1027.01 1026.79 1026.54 1026.30
1019.75 1019.81 1019.92 1020.07 1020.28 1020.55 1020.88 1021.26 1021.68 1022.14 1022.62 1023.09 1023.54 1023.95 1024.30 1024.60 1024.83 1025.00 1025.12 1025.22 1025.32 1025.42 1025.55 1025.71 1025.90 1026.11 1026.33 1026.53 1026.70 1026.82 1026.88 1026.88 1026.81 1026.69 1026.53 1026.36 1026.17 1025.98
1020.56 1020.61 1020.70 1020.84 1021.01 1021.22 1021.48 1021.78 1022.11 1022.48 1022.86 1023.25 1023.63 1023.98 1024.29 1024.55 1024.74 1024.88 1024.97 1025.03 1025.07 1025.12 1025.18 1025.28 1025.41 1025.56 1025.73 1025.89 1026.04 1026.14 1026.20 1026.21 1026.17 1026.09 1025.99 1025.86 1025.73 1025.59
1021.27 1021.33 1021.42 1021.55 1021.71 1021.90 1022.12 1022.36 1022.64 1022.94 1023.25 1023.57 1023.89 1024.19 1024.45 1024.66 1024.82 1024.92 1024.97 1024.99 1024.97 1024.96 1024.96 1024.98 1025.03 1025.11 1025.20 1025.31 1025.41 1025.48 1025.53 1025.53 1025.51 1025.46 1025.39 1025.31 1025.22 1025.14
1021.91 1021.98 1022.09 1022.23 1022.40 1022.59 1022.80 1023.02 1023.25 1023.49 1023.75 1024.01 1024.27 1024.51 1024.73 1024.90 1025.02 1025.09 1025.10 1025.07 1025.00 1024.93 1024.85 1024.80 1024.77 1024.77 1024.78 1024.82 1024.85 1024.88 1024.89 1024.88 1024.86 1024.82 1024.77 1024.71 1024.66 1024.61
1022.52 1022.61 1022.75 1022.91 1023.10 1023.30 1023.50 1023.70 1023.90 1024.10 1024.30 1024.51 1024.71 1024.90 1025.06 1025.19 1025.27 1025.30 1025.28 1025.20 1025.09 1024.96 1024.83 1024.70 1024.60 1024.51 1024.45 1024.41 1024.38 1024.36 1024.33 1024.29 1024.24 1024.19 1024.15 1024.10 1024.06 1024.02
1023.13 1023.24 1023.40 1023.59 1023.80 1024.00 1024.19 1024.37 1024.54 1024.69 1024.84 1024.99 1025.13 1025.26 1025.37 1025.46 1025.50 1025.49 1025.43 1025.32 1025.17 1025.00 1024.81 1024.63 1024.47 1024.32 1024.19 1024.09 1024.00 1023.92 1023.84 1023.76 1023.69 1023.62 1023.56 1023.50 1023.46 1023.42
1023.74 1023.87 1024.05 1024.25 1024.45 1024.65 1024.82 1024.96 1025.09 1025.19 1025.29 1025.37 1025.46 1025.53 1025.59 1025.63 1025.63 1025.59 1025.50 1025.37 1025.19 1024.99 1024.77 1024.55 1024.34 1024.15 1023.98 1023.82 1023.68 1023.55 1023.43 1023.32 1023.21 1023.11 1023.02 1022.95 1022.89 1022.85
1024.34 1024.47 1024.65 1024.83 1025.02 1025.18 1025.32 1025.42 1025.49 1025.54 1025.58 1025.61 1025.64 1025.66 1025.68 1025.67 1025.64 1025.58 1025.47 1025.32 1025.12 1024.91 1024.67 1024.44 1024.20 1023.98 1023.78 1023.59 1023.42 1023.26 1023.10 1022.95 1022.81 1022.68 1022.57 1022.48 1022.41 1022.35
1024.88 1025.00 1025.14 1025.30 1025.44 1025.56 1025.64 1025.69 1025.71 1025.70 1025.69 1025.67 1025.66 1025.64 1025.62 1025.59 1025.54 1025.45 1025.33 1025.17 1024.98 1024.76 1024.52 1024.28 1024.04 1023.81 1023.59 1023.39 1023.20 1023.02 1022.84 1022.67 1022.50 1022.35 1022.22 1022.11 1022.03 1021.97
1025.32 1025.40 1025.50 1025.60 1025.68 1025.74 1025.76 1025.76 1025.73 1025.68 1025.63 1025.58 1025.54 1025.50 1025.46 1025.41 1025.35 1025.25 1025.13 1024.97 1024.78 1024.56 1024.33 1024.09 1023.86 1023.63 1023.42 1023.21 1023.02 1022.82 1022.64 1022.45 1022.28 1022.11 1021.97 1021.86 1021.77 1021.72
1025.62 1025.65 1025.68 1025.72 1025.74 1025.73 1025.71 1025.66 1025.60 1025.53 1025.46 1025.40 1025.35 1025.30 1025.25 1025.20 1025.13 1025.04 1024.91 1024.75 1024.57 1024.36 1024.13 1023.90 1023.68 1023.46 1023.25 1023.05 1022.86 1022.67 1022.49 1022.30 1022.12 1021.96 1021.82 1021.71 1021.63 1021.59
1025.76 1025.73 1025.70 1025.68 1025.64 1025.59 1025.53 1025.46 1025.39 1025.32 1025.25 1025.20 1025.15 1025.12 1025.08 1025.03 1024.96 1024.86 1024.73 1024.57 1024.38 1024.18 1023.96 1023.73 1023.52 1023.31 1023.11 1022.92 1022.74 1022.56 1022.38 1022.20 1022.03 1021.87 1021.74 1021.63 1021.57 1021.54
1025.77 1025.68 1025.61 1025.54 1025.47 1025.40 1025.33 1025.26 1025.20 1025.14 1025.10 1025.07 1025.04 1025.02 1024.99 1024.94 1024.87 1024.76 1024.62 1024.45 1024.25 1024.04 1023.81 1023.59 1023.37 1023.17 1022.98 1022.80 1022.62 1022.45 1022.29 1022.12 1021.96 1021.81 1021.68 1021.59 1021.53 1021.50
1025.68 1025.57 1025.47 1025.38 1025.30 1025.24 1025.18 1025.14 1025.11 1025.09 1025.08 1025.07 1025.07 1025.05 1025.02 1024.96 1024.87 1024.75 1024.58 1024.39 1024.17 1023.93 1023.69 1023.46 1023.24 1023.03 1022.84 1022.67 1022.51 1022.35 1022.19 1022.04 1021.89 1021.75 1021.63 1021.53 1021.46 1021.42
1025.56 1025.45 1025.35 1025.28 1025.22 1025.19 1025.17 1025.17 1025.18 1025.20 1025.22 1025.24 1025.24 1025.22 1025.17 1025.08 1024.96 1024.79 1024.59 1024.35 1024.10 1023.84 1023.58 1023.33 1023.09 1022.89 1022.70 1022.53 1022.37 1022.22 1022.07 1021.93 1021.79 1021.65 1021.52 1021.41 1021.32 1021.26
1025.47 1025.37 1025.31 1025.27 1025.26 1025.28 1025.32 1025.37 1025.42 1025.48 1025.52 1025.54 1025.53 1025.49 1025.40 1025.26 1025.08 1024.86 1024.60 1024.32 1024.02 1023.72 1023.44 1023.17 1022.92 1022.71 1022.52 1022.35 1022.20 1022.05 1021.91 1021.77 1021.63 1021.49 1021.35 1021.22 1021.09 1020.98
1025.42 1025.37 1025.35 1025.37 1025.43 1025.51 1025.60 1025.71 1025.80 1025.88 1025.93 1025.93 1025.89 1025.80 1025.65 1025.45 1025.20 1024.91 1024.59 1024.25 1023.91 1023.58 1023.27 1022.98 1022.72 1022.50 1022.31 1022.14 1021.99 1021.84 1021.70 1021.56 1021.41 1021.26 1021.10 1020.94 1020.77 1020.60
Thickness
5655 5655 5655 5654 5652 5651 5647 5644 5636 5624 5615 5609 5607 5605 5604 5601 5598 5596 5593 5589 5587 5585 5582 5579 5577 5574 5571 5568 5565 5562 5559 5555 5552 5549 5546 5543 5541 5538
5645 5645 5646 5644 5642 5640 5637 5635 5633 5628 5616 5606 5602 5599 5595 5594 5589 5588 5585 5581 5578 5575 5572 5570 5567 5565 5561 5558 5555 5552 5548 5545 5541 5538 5535 5532 5529 5526
5636 5636 5635 5633 5632 5630 5628 5626 5624 5621 5612 5601 5596 5590 5587 5586 5582 5580 5578 5575 5571 5566 5563 5561 5558 5556 5552 5549 5546 5542 5539 5535 5532 5528 5525 5522 5519 5516
5626 5626 5625 5624 5622 5621 5619 5616 5613 5610 5605 5595 5588 5583 5579 5577 5574 5572 5571 5569 5566 5559 5555 5553 5550 5547 5544 5541 5537 5533 5530 5527 5523 5519 5516 5513 5511 5508
5615 5615 5614 5613 5612 5610 5609 5606 5603 5600 5595 5589 5582 5577 5574 5571 5568 5566 5564 5561 5559 5553 5549 5546 5543 5540 5536 5533 5529 5526 5523 5519 5516 5512 5510 5507 5505 5502
5604 5604 5603 5602 5601 5600 5599 5596 5594 5590 5586 5582 5577 5572 5568 5564 5563 5562 5559 5556 5554 5550 5545 5541 5537 5533 5530 5526 5523 5519 5516 5513 5510 5507 5505 5502 5500 5498
5592 5591 5589 5588 5587 5589 5589 5586 5585 5583 5579 5575 5571 5567 5564 5560 5559 5557 5555 5551 5547 5545 5542 5539 5535 5531 5526 5522 5518 5514 5511 5508 5506 5503 5501 5499 5497 5495
5581 5579 5578 5577 5575 5575 5574 5573 5572 5573 5571 5569 5566 5561 5556 5554 5551 5551 5549 5547 5543 5539 5537 5535 5532 5529 5525 5521 5514 5510 5507 5505 5502 5500 5498 5497 5495 5493
5569 5569 5569 5566 5567 5565 5562 5561 5559 5558 5558 5559 5558 5554 5550 5546 5544 5543 5540 5539 5535 5533 5530 5530 5527 5524 5521 5516 5510 5506 5503 5501 5499 5498 5496 5495 5493 5492
5557 5558 5557 5556 5556 5557 5557 5555 5552 5549 5548 5549 5547 5544 5541 5537 5535 5534 5532 5529 5527 5525 5523 5524 5522 5520 5517 5513 5507 5503 5501 5499 5497 5496 5495 5494 5492 5491
5547 5546 5547 5545 5542 5544 5547 5546 5544 5540 5537 5536 5534 5532 5529 5527 5526 5528 5528 5528 5525 5523 5520 5519 5517 5516 5514 5512 5507 5503 5500 5498 5497 5495 5494 5493 5492 5491
5537 5536 5533 5534 5533 5535 5539 5538 5536 5534 5533 5530 5526 5524 5523 5521 5519 5519 5522 5522 5520 5518 5514 5513 5513 5512 5510 5510 5508 5505 5502 5499 5498 5497 5495 5494 5492 5493
5532 5530 5525 5523 5524 5525 5527 5528 5525 5526 5527 5526 5524 5522 5520 5518 5517 5515 5514 5515 5514 5512 5511 5508 5508 5508 5507 5507 5507 5505 5504 5502 5501 5499 5497 5495 5493 5492
5524 5522 5517 5515 5516 5517 5518 5516 5517 5519 5523 5522 5521 5519 5518 5516 5513 5510 5508 5507 5505 5505 5503 5502 5504 5503 5503 5504 5505 5505 5504 5503 5502 5502 5500 5497 5495 5493
5513 5509 5509 5509 5509 5511 5509 5511 5513 5517 5517 5516 5514 5513 5512 5509 5508 5507 5505 5504 5502 5502 5501 5499 5499 5500 5501 5501 5502 5503 5503 5504 5503 5502 5501 5501 5499 5497
5508 5504 5504 5505 5506 5505 5506 5509 5510 5510 5510 5509 5508 5508 5507 5507 5506 5506 5505 5504 5503 5503 5500 5499 5497 5497 5500 5501 5502 5502 5503 5503 5503 5503 5502 5502 5501 5499
5505 5507 5507 5507 5507 5506 5506 5505 5505 5505 5505 5504 5504 5504 5504 5504 5503 5503 5501 5502 5502 5502 5502 5501 5501 5499 5499 5500 5501 5503 5503 5504 5504 5503 5500 5502 5502 5500
5501 5504 5504 5504 5504 5503 5503 5502 5501 5500 5500 5500 5500 5500 5500 5500 5501 5501 5501 5501 5500 5501 5501 5502 5502 5503 5503 5504 5500 5502 5504 5504 5504 5503 5501 5501 5501 5500
5500 5500 5500 5500 5500 5500 5500 5499 5498 5497 5496 5497 5497 5498 5498 5498 5498 5499 5499 5499 5499 5500 5501 5502 5502 5502 5501 5502 5502 5498 5501 5501 5502 5503 5503 5502 5500 5500
5499 5498 5498 5497 5497 5496 5497 5496 5496 5495 5495 5495 5495 5495 5495 5496 5497 5497 5498 5496 5497 5499 5500 5502 5502 5501 5500 5500 5502 5503 5499 5500 5500 5500 5501 5501 5501 5498
5497 5497 5496 5496 5495 5494 5494 5493 5493 5493 5492 5492 5493 5492 5494 5494 5495 5496 5497 5495 5495 5499 5500 5501 5501 5496 5498 5500 5502 5504 5503 5499 5497 5496 5497 5498 5498 5498
5497 5496 5495 5494 5493 5494 5493 5493 5493 5493 5492 5493 5493 5492 5493 5493 5494 5495 5497 5498 5499 5500 5501 5503 5503 5502 5503 5502 5502 5503 5504 5502 5499 5496 5493 5492 5492 5491
5496 5496 5496 5495 5494 5494 5494 5493 5493 5493 5492 5492 5492 5492 5493 5493 5494 5496 5497 5499 5500 5501 5502 5503 5504 5504 5504 5504 5503 5503 5503 5503 5502 5500 5499 5494 5491 5489